owner,sensor,date,latitude,longitude,vertical_datum,wind_speed,wind_to_direction,wind_speed_of_gust,qcFlag 
TABS,ioos:station:wmo:42047:1,2003-04-01T00:09:00Z,27.8966,-93.5973,4.0,3.855191305,189.7068402,9.43,'11111222,11111222,11111222' 
TABS,ioos:station:wmo:42047:1,2003-04-01T00:39:00Z,27.8966,-93.5973,4.0,3.568487074,187.2447004,9.16,'11111222,11111222,11111222' 
TABS,ioos:station:wmo:42047:1,2003-04-01T01:39:00Z,27.8966,-93.5973,4.0,3.440712136,181.1659493,8.85,'11111222,11111222,11111222' 
TABS,ioos:station:wmo:42047:1,2003-04-01T02:09:00Z,27.8966,-93.5973,4.0,3.024235441,183.032906,8.83,'11111222,11111222,11111222' 
TABS,ioos:station:wmo:42047:1,2003-04-01T04:09:00Z,27.8966,-93.5973,4.0,4.926266335,184.657595,11.47,'11111222,11111222,11111222' 
TABS,ioos:station:wmo:42047:1,2003-04-01T04:39:00Z,27.8966,-93.5973,4.0,5.048346264,184.8863681,11.3,'11111222,11111222,11111222' 
TABS,ioos:station:wmo:42047:1,2003-04-01T06:09:00Z,27.8966,-93.5973,4.0,5.271147883,178.8044598,11.0,'11111222,11111222,11111222' 
TABS,ioos:station:wmo:42047:1,2003-04-01T07:39:00Z,27.8966,-93.5973,4.0,5.885550102,170.8099826,12.03,'11111222,11111222,11111222' 
TABS,ioos:station:wmo:42047:1,2003-04-01T08:09:00Z,27.8966,-93.5973,4.0,6.114441921,176.0614806,12.66,'11111222,11111222,11111222' 
TABS,ioos:station:wmo:42047:1,2003-04-01T08:39:00Z,27.8966,-93.5973,4.0,5.961006626,175.1886872,13.68,'11111222,11111222,11111222' 
TABS,ioos:station:wmo:42047:1,2003-04-01T09:09:00Z,27.8966,-93.5973,4.0,6.097384685,182.8203763,12.8,'11111222,11111222,11111222' 
TABS,ioos:station:wmo:42047:1,2003-04-01T10:09:00Z,27.8966,-93.5973,4.0,5.748912941,176.8093311,12.83,'11111222,11111222,11111222' 
TABS,ioos:station:wmo:42047:1,2003-04-01T12:39:00Z,27.8966,-93.5973,4.0,6.32809608,177.1016404,14.25,'11111222,11111222,11111222' 
TABS,ioos:station:wmo:42047:1,2003-04-01T14:09:00Z,27.8966,-93.5973,4.0,6.372793736,169.6953881,13.72,'11111222,11111222,11111222' 
TABS,ioos:station:wmo:42047:1,2003-04-01T16:09:00Z,27.8966,-93.5973,4.0,7.233325653,169.4049094,14.93,'11111222,11111222,11111222' 
TABS,ioos:station:wmo:42047:1,2003-04-01T20:09:00Z,27.8966,-93.5973,4.0,5.932486831,174.001329,13.59,'11111222,11111222,11111222' 
TABS,ioos:station:wmo:42047:1,2003-04-01T20:39:00Z,27.8966,-93.5973,4.0,5.248018674,176.8324997,12.51,'11111222,11111222,11111222' 
TABS,ioos:station:wmo:42047:1,2003-04-02T00:39:00Z,27.8966,-93.5973,4.0,5.691555148,168.1375035,13.46,'11111222,11111222,11111222' 
TABS,ioos:station:wmo:42047:1,2003-04-02T02:39:00Z,27.8966,-93.5973,4.0,5.601428389,168.0483633,12.91,'11111222,11111222,11111222' 
TABS,ioos:station:wmo:42047:1,2003-04-02T05:09:00Z,27.8966,-93.5973,4.0,6.637266003,172.4683339,14.35,'11111222,11111222,11111222' 
TABS,ioos:station:wmo:42047:1,2003-04-02T06:09:00Z,27.8966,-93.5973,4.0,5.569245909,174.1258415,13.21,'11111222,11111222,11111222' 
TABS,ioos:station:wmo:42047:1,2003-04-02T09:39:00Z,27.8966,-93.5973,4.0,6.264774537,165.6756386,13.7,'11111222,11111222,11111222' 
TABS,ioos:station:wmo:42047:1,2003-04-02T10:39:00Z,27.8966,-93.5973,4.0,6.56982496,175.5480056,14.86,'11111222,11111222,11111222' 
TABS,ioos:station:wmo:42047:1,2003-04-02T17:09:00Z,27.8966,-93.5973,4.0,5.826868799,167.1088062,12.7,'11111222,11111222,11111222' 
TABS,ioos:station:wmo:42047:1,2003-04-02T17:39:00Z,27.8966,-93.5973,4.0,5.355716572,175.6097204,12.32,'11111222,11111222,11111222' 
TABS,ioos:station:wmo:42047:1,2003-04-02T19:09:00Z,27.8966,-93.5973,4.0,5.037588709,161.241604,11.51,'11111222,11111222,11111222' 
TABS,ioos:station:wmo:42047:1,2003-04-02T20:09:00Z,27.8966,-93.5973,4.0,4.787744772,150.3296158,10.9,'11111222,11111222,11111222' 
TABS,ioos:station:wmo:42047:1,2003-04-02T20:39:00Z,27.8966,-93.5973,4.0,5.123631525,156.5373702,11.79,'11111222,11111222,11111222' 
TABS,ioos:station:wmo:42047:1,2003-04-02T21:39:00Z,27.8966,-93.5973,4.0,4.624499973,162.8975215,11.16,'11111222,11111222,11111222' 
TABS,ioos:station:wmo:42047:1,2003-04-02T23:09:00Z,27.8966,-93.5973,4.0,4.872473704,159.7057098,11.75,'11111222,11111222,11111222' 
TABS,ioos:station:wmo:42047:1,2003-04-03T02:09:00Z,27.8966,-93.5973,4.0,3.794851776,168.601474,10.52,'11111222,11111222,11111222' 
TABS,ioos:station:wmo:42047:1,2003-04-03T07:39:00Z,27.8966,-93.5973,4.0,5.384356972,166.2478948,12.71,'11111222,11111222,11111222' 
TABS,ioos:station:wmo:42047:1,2003-04-03T08:09:00Z,27.8966,-93.5973,4.0,5.765084561,165.8434791,12.92,'11111222,11111222,11111222' 
TABS,ioos:station:wmo:42047:1,2003-04-03T12:09:00Z,27.8966,-93.5973,4.0,4.995447928,153.7429838,11.61,'11111222,11111222,11111222' 
TABS,ioos:station:wmo:42047:1,2003-04-03T15:39:00Z,27.8966,-93.5973,4.0,3.780542289,159.8876692,9.73,'11111222,11111222,11111222' 
TABS,ioos:station:wmo:42047:1,2003-04-03T17:09:00Z,27.8966,-93.5973,4.0,4.578995523,161.4070299,11.28,'11111222,11111222,11111222' 
TABS,ioos:station:wmo:42047:1,2003-04-03T21:39:00Z,27.8966,-93.5973,4.0,5.101578187,160.5353018,11.04,'11111222,11111222,11111222' 
TABS,ioos:station:wmo:42047:1,2003-04-03T23:09:00Z,27.8966,-93.5973,4.0,4.416163493,158.8975447,10.78,'11111222,11111222,11111222' 
TABS,ioos:station:wmo:42047:1,2003-04-03T23:39:00Z,27.8966,-93.5973,4.0,4.923667332,161.528506,11.16,'11111222,11111222,11111222' 
TABS,ioos:station:wmo:42047:1,2003-04-04T00:09:00Z,27.8966,-93.5973,4.0,5.385109098,159.6808165,11.35,'11111222,11111222,11111222' 
TABS,ioos:station:wmo:42047:1,2003-04-04T00:39:00Z,27.8966,-93.5973,4.0,4.851741955,162.6110022,11.25,'11111222,11111222,11111222' 
TABS,ioos:station:wmo:42047:1,2003-04-04T01:09:00Z,27.8966,-93.5973,4.0,4.585684246,159.3126003,10.67,'11111222,11111222,11111222' 
TABS,ioos:station:wmo:42047:1,2003-04-04T01:39:00Z,27.8966,-93.5973,4.0,4.541387453,160.8471518,10.9,'11111222,11111222,11111222' 
TABS,ioos:station:wmo:42047:1,2003-04-04T02:09:00Z,27.8966,-93.5973,4.0,5.233784482,162.0845864,11.74,'11111222,11111222,11111222' 
TABS,ioos:station:wmo:42047:1,2003-04-04T03:39:00Z,27.8966,-93.5973,4.0,5.19654693,162.6462264,11.93,'11111222,11111222,11111222' 
TABS,ioos:station:wmo:42047:1,2003-04-04T04:09:00Z,27.8966,-93.5973,4.0,6.175734774,164.1185703,12.69,'11111222,11111222,11111222' 
TABS,ioos:station:wmo:42047:1,2003-04-04T05:39:00Z,27.8966,-93.5973,4.0,6.615081254,168.4015355,14.19,'11111222,11111222,11111222' 
TABS,ioos:station:wmo:42047:1,2003-04-04T06:09:00Z,27.8966,-93.5973,4.0,6.487410886,170.0587638,13.62,'11111222,11111222,11111222' 
TABS,ioos:station:wmo:42047:1,2003-04-04T06:39:00Z,27.8966,-93.5973,4.0,5.677129556,172.6123311,12.71,'11111222,11111222,11111222' 
TABS,ioos:station:wmo:42047:1,2003-04-04T08:09:00Z,27.8966,-93.5973,4.0,4.809293087,173.6731898,10.87,'11111222,11111222,11111222' 
TABS,ioos:station:wmo:42047:1,2003-04-04T09:09:00Z,27.8966,-93.5973,4.0,4.931713698,181.5106989,10.97,'11111222,11111222,11111222' 
TABS,ioos:station:wmo:42047:1,2003-04-04T10:39:00Z,27.8966,-93.5973,4.0,3.231547617,181.773503,9.41,'11111222,11111222,11111222' 
TABS,ioos:station:wmo:42047:1,2003-04-04T12:09:00Z,27.8966,-93.5973,4.0,3.484623366,171.9166333,9.08,'11111222,11111222,11111222' 
TABS,ioos:station:wmo:42047:1,2003-04-04T12:39:00Z,27.8966,-93.5973,4.0,1.611521021,182.4897576,7.77,'11111222,11111222,11111222' 
TABS,ioos:station:wmo:42047:1,2003-04-04T14:39:00Z,27.8966,-93.5973,4.0,5.369562366,161.4303329,12.74,'11111222,11111222,11111222' 
TABS,ioos:station:wmo:42047:1,2003-04-04T16:09:00Z,27.8966,-93.5973,4.0,2.755013612,152.7841625,9.61,'11111222,11111222,11111222' 
TABS,ioos:station:wmo:42047:1,2003-04-04T17:09:00Z,27.8966,-93.5973,4.0,3.680461928,146.5261048,10.22,'11111222,11111222,11111222' 
TABS,ioos:station:wmo:42047:1,2003-04-04T17:39:00Z,27.8966,-93.5973,4.0,3.913374503,154.0900003,11.6,'11111222,11111222,11111222' 
TABS,ioos:station:wmo:42047:1,2003-04-04T19:39:00Z,27.8966,-93.5973,4.0,3.735304539,152.063133,10.63,'11111222,11111222,11111222' 
TABS,ioos:station:wmo:42047:1,2003-04-04T20:09:00Z,27.8966,-93.5973,4.0,3.970793372,157.1806081,10.84,'11111222,11111222,11111222' 
TABS,ioos:station:wmo:42047:1,2003-04-04T21:09:00Z,27.8966,-93.5973,4.0,4.820995748,169.4827893,12.1,'11111222,11111222,11111222' 
TABS,ioos:station:wmo:42047:1,2003-04-04T22:09:00Z,27.8966,-93.5973,4.0,3.403439437,152.9082067,10.44,'11111222,11111222,11111222' 
TABS,ioos:station:wmo:42047:1,2003-04-04T23:09:00Z,27.8966,-93.5973,4.0,4.018519628,148.3273975,10.02,'11111222,11111222,11111222' 
TABS,ioos:station:wmo:42047:1,2003-04-05T00:09:00Z,27.8966,-93.5973,4.0,4.442881948,159.4442133,11.23,'11111222,11111222,11111222' 
TABS,ioos:station:wmo:42047:1,2003-04-05T01:09:00Z,27.8966,-93.5973,4.0,4.427640455,152.8564972,11.84,'11111222,11111222,11111222' 
TABS,ioos:station:wmo:42047:1,2003-04-05T05:39:00Z,27.8966,-93.5973,4.0,2.963798239,160.2814124,8.52,'11111222,11111222,11111222' 
TABS,ioos:station:wmo:42047:1,2003-04-05T07:09:00Z,27.8966,-93.5973,4.0,4.019203901,163.8198744,10.64,'11111222,11111222,11111222' 
TABS,ioos:station:wmo:42047:1,2003-04-05T09:09:00Z,27.8966,-93.5973,4.0,4.421639967,166.5297091,10.33,'11111222,11111222,11111222' 
TABS,ioos:station:wmo:42047:1,2003-04-05T09:39:00Z,27.8966,-93.5973,4.0,2.918527026,169.5373558,8.7,'11111222,11111222,11111222' 
TABS,ioos:station:wmo:42047:1,2003-04-05T11:09:00Z,27.8966,-93.5973,4.0,0.993277403,163.0247507,6.11,'11111222,11111222,11111222' 
TABS,ioos:station:wmo:42047:1,2003-04-05T12:39:00Z,27.8966,-93.5973,4.0,2.899275772,157.0611636,9.03,'11111222,11111222,11111222' 
TABS,ioos:station:wmo:42047:1,2003-04-05T15:09:00Z,27.8966,-93.5973,4.0,1.19503138,135.3393392,6.71,'11111222,11111222,11111222' 
TABS,ioos:station:wmo:42047:1,2003-04-05T15:39:00Z,27.8966,-93.5973,4.0,1.246154084,112.6556006,7.17,'11111222,11111222,11111222' 
TABS,ioos:station:wmo:42047:1,2003-04-05T16:39:00Z,27.8966,-93.5973,4.0,1.741952927,102.6005513,7.75,'11111222,11111222,11111222' 
TABS,ioos:station:wmo:42047:1,2003-04-05T18:39:00Z,27.8966,-93.5973,4.0,2.230807029,110.4662361,8.5,'11111222,11111222,11111222' 
TABS,ioos:station:wmo:42047:1,2003-04-05T19:09:00Z,27.8966,-93.5973,4.0,2.773950252,124.7216199,8.72,'11111222,11111222,11111222' 
TABS,ioos:station:wmo:42047:1,2003-04-05T19:39:00Z,27.8966,-93.5973,4.0,2.412985702,120.9233832,8.97,'11111222,11111222,11111222' 
TABS,ioos:station:wmo:42047:1,2003-04-05T20:09:00Z,27.8966,-93.5973,4.0,3.064930668,124.364445,8.93,'11111222,11111222,11111222' 
TABS,ioos:station:wmo:42047:1,2003-04-05T21:09:00Z,27.8966,-93.5973,4.0,2.864349839,114.3284361,8.18,'11111222,11111222,11111222' 
TABS,ioos:station:wmo:42047:1,2003-04-05T21:39:00Z,27.8966,-93.5973,4.0,2.769295939,114.9922578,8.48,'11111222,11111222,11111222' 
TABS,ioos:station:wmo:42047:1,2003-04-05T22:09:00Z,27.8966,-93.5973,4.0,2.765085894,103.3832885,8.26,'11111222,11111222,11111222' 
TABS,ioos:station:wmo:42047:1,2003-04-05T23:09:00Z,27.8966,-93.5973,4.0,2.909982818,119.2079491,8.66,'11111222,11111222,11111222' 
TABS,ioos:station:wmo:42047:1,2003-04-06T00:09:00Z,27.8966,-93.5973,4.0,3.854983787,116.4989417,9.04,'11111222,11111222,11111222' 
TABS,ioos:station:wmo:42047:1,2003-04-06T00:39:00Z,27.8966,-93.5973,4.0,4.038217429,123.6904097,9.55,'11111222,11111222,11111222' 
TABS,ioos:station:wmo:42047:1,2003-04-06T01:39:00Z,27.8966,-93.5973,4.0,4.099609738,124.4656755,9.43,'11111222,11111222,11111222' 
TABS,ioos:station:wmo:42047:1,2003-04-06T02:09:00Z,27.8966,-93.5973,4.0,3.608434564,125.9810143,8.67,'11111222,11111222,11111222' 
TABS,ioos:station:wmo:42047:1,2003-04-06T02:39:00Z,27.8966,-93.5973,4.0,3.581340531,132.5107686,9.12,'11111222,11111222,11111222' 
TABS,ioos:station:wmo:42047:1,2003-04-06T03:09:00Z,27.8966,-93.5973,4.0,4.228675916,138.3555164,10.16,'11111222,11111222,11111222' 
TABS,ioos:station:wmo:42047:1,2003-04-06T04:39:00Z,27.8966,-93.5973,4.0,5.204498055,150.2827084,11.92,'11111222,11111222,11111222' 
TABS,ioos:station:wmo:42047:1,2003-04-06T05:09:00Z,27.8966,-93.5973,4.0,4.843397568,153.1177973,11.74,'11111222,11111222,11111222' 
TABS,ioos:station:wmo:42047:1,2003-04-06T06:39:00Z,27.8966,-93.5973,4.0,4.570525134,153.4912837,10.82,'11111222,11111222,11111222' 
TABS,ioos:station:wmo:42047:1,2003-04-06T09:39:00Z,27.8966,-93.5973,4.0,5.672257046,163.1945798,12.29,'11111222,11111222,11111222' 
TABS,ioos:station:wmo:42047:1,2003-04-06T12:39:00Z,27.8966,-93.5973,4.0,7.155110062,162.9328456,15.0,'11111222,11111222,11111222' 
TABS,ioos:station:wmo:42047:1,2003-04-06T13:39:00Z,27.8966,-93.5973,4.0,7.470073627,162.3899946,15.7,'11111222,11111222,11111222' 
TABS,ioos:station:wmo:42047:1,2003-04-06T15:39:00Z,27.8966,-93.5973,4.0,8.094108969,155.2399597,16.81,'11111222,11111222,11111222' 
TABS,ioos:station:wmo:42047:1,2003-04-06T16:09:00Z,27.8966,-93.5973,4.0,8.628470316,157.2986716,16.59,'11111222,11111222,11111222' 
TABS,ioos:station:wmo:42047:1,2003-04-06T19:09:00Z,27.8966,-93.5973,4.0,7.399905405,171.059807,15.09,'11111222,11111222,11111222' 
TABS,ioos:station:wmo:42047:1,2003-04-06T20:09:00Z,27.8966,-93.5973,4.0,6.464920727,169.6636805,14.98,'11111222,11111222,11111222' 
TABS,ioos:station:wmo:42047:1,2003-04-06T21:39:00Z,27.8966,-93.5973,4.0,5.348663384,166.9253331,12.83,'11111222,11111222,11111222' 
TABS,ioos:station:wmo:42047:1,2003-04-06T22:09:00Z,27.8966,-93.5973,4.0,5.572082196,167.9844804,12.75,'11111222,11111222,11111222' 
TABS,ioos:station:wmo:42047:1,2003-04-07T01:09:00Z,27.8966,-93.5973,4.0,3.060147055,180.5619145,11.23,'11111222,11111222,11111222' 
TABS,ioos:station:wmo:42047:1,2003-04-07T02:09:00Z,27.8966,-93.5973,4.0,3.488968329,175.8912029,10.58,'11111222,11111222,11111222' 
TABS,ioos:station:wmo:42047:1,2003-04-07T03:39:00Z,27.8966,-93.5973,4.0,3.197655391,170.0960504,9.77,'11111222,11111222,11111222' 
TABS,ioos:station:wmo:42047:1,2003-04-07T04:09:00Z,27.8966,-93.5973,4.0,1.578511958,163.0576393,9.19,'11111222,11111222,11111222' 
TABS,ioos:station:wmo:42047:1,2003-04-07T04:39:00Z,27.8966,-93.5973,4.0,0.963016095,164.9538538,7.69,'11111222,11111222,11111222' 
TABS,ioos:station:wmo:42047:1,2003-04-07T05:09:00Z,27.8966,-93.5973,4.0,0.642572953,159.0267661,7.44,'11111222,11111222,11111222' 
TABS,ioos:station:wmo:42047:1,2003-04-07T07:39:00Z,27.8966,-93.5973,4.0,0.452769257,263.6598231,7.36,'11111222,11111222,11111222' 
TABS,ioos:station:wmo:42047:1,2003-04-07T09:09:00Z,27.8966,-93.5973,4.0,0.4,126.8702323,7.61,'11111222,11111222,11111222' 
TABS,ioos:station:wmo:42047:1,2003-04-07T10:09:00Z,27.8966,-93.5973,4.0,1.966214637,99.36690897,8.01,'11111222,11111222,11111222' 
TABS,ioos:station:wmo:42047:1,2003-04-07T11:39:00Z,27.8966,-93.5973,4.0,2.454648651,119.8031363,8.89,'11111222,11111222,11111222' 
TABS,ioos:station:wmo:42047:1,2003-04-07T15:09:00Z,27.8966,-93.5973,4.0,4.517355421,117.4162728,11.44,'11111222,11111222,11111222' 
TABS,ioos:station:wmo:42047:1,2003-04-07T16:39:00Z,27.8966,-93.5973,4.0,3.940977036,140.2505761,10.39,'11111222,11111222,11111222' 
TABS,ioos:station:wmo:42047:1,2003-04-07T21:39:00Z,27.8966,-93.5973,4.0,4.894088271,182.3422853,11.78,'11111222,11111222,11111222' 
TABS,ioos:station:wmo:42047:1,2003-04-07T22:39:00Z,27.8966,-93.5973,4.0,3.654709291,170.0739882,9.93,'11111222,11111222,11111222' 
TABS,ioos:station:wmo:42047:1,2003-04-08T00:39:00Z,27.8966,-93.5973,4.0,3.395600094,163.7535426,9.41,'11111222,11111222,11111222' 
TABS,ioos:station:wmo:42047:1,2003-04-08T01:09:00Z,27.8966,-93.5973,4.0,2.217137795,160.5028825,7.95,'11111222,11111222,11111222' 
TABS,ioos:station:wmo:42047:1,2003-04-08T01:39:00Z,27.8966,-93.5973,4.0,1.721917536,152.6911639,7.46,'11111222,11111222,11111222' 
TABS,ioos:station:wmo:42047:1,2003-04-08T03:09:00Z,27.8966,-93.5973,4.0,1.453444185,147.075576,6.97,'11111222,11111222,11111222' 
TABS,ioos:station:wmo:42047:1,2003-04-08T03:39:00Z,27.8966,-93.5973,4.0,1.558781575,131.3591389,8.33,'11111222,11111222,11111222' 
TABS,ioos:station:wmo:42047:1,2003-04-08T05:39:00Z,27.8966,-93.5973,4.0,3.688929384,139.6180169,12.52,'11111222,11111222,11111222' 
TABS,ioos:station:wmo:42047:1,2003-04-08T06:39:00Z,27.8966,-93.5973,4.0,2.046875668,163.2473828,10.69,'11111222,11111222,11111222' 
TABS,ioos:station:wmo:42047:1,2003-04-08T07:09:00Z,27.8966,-93.5973,4.0,1.46840049,16.21313332,7.84,'11111222,11111222,11111222' 
TABS,ioos:station:wmo:42047:1,2003-04-08T08:09:00Z,27.8966,-93.5973,4.0,0.735527022,316.1015983,6.68,'11111222,11111222,11111222' 
TABS,ioos:station:wmo:42047:1,2003-04-08T09:39:00Z,27.8966,-93.5973,4.0,1.565407295,138.3667685,8.72,'11111222,11111222,11111222' 
TABS,ioos:station:wmo:42047:1,2003-04-08T10:39:00Z,27.8966,-93.5973,4.0,4.307122009,154.2681212,12.16,'11111222,11111222,11111222' 
TABS,ioos:station:wmo:42047:1,2003-04-08T15:09:00Z,27.8966,-93.5973,4.0,6.837733543,284.8288278,16.05,'11111222,11111222,11111222' 
TABS,ioos:station:wmo:42047:1,2003-04-08T16:09:00Z,27.8966,-93.5973,4.0,8.969041197,283.8038067,18.85,'11111222,11111222,11111222' 
TABS,ioos:station:wmo:42047:1,2003-04-08T18:09:00Z,27.8966,-93.5973,4.0,9.980871705,289.1247439,19.47,'11111222,11111222,11111222' 
TABS,ioos:station:wmo:42047:1,2003-04-08T19:39:00Z,27.8966,-93.5973,4.0,11.48675759,289.3182488,20.3,'11111222,11111222,11111222' 
TABS,ioos:station:wmo:42047:1,2003-04-09T01:39:00Z,27.8966,-93.5973,4.0,7.394653474,303.0237903,16.93,'11111222,11111222,11111222' 
TABS,ioos:station:wmo:42047:1,2003-04-09T03:09:00Z,27.8966,-93.5973,4.0,8.124192268,291.6703973,16.88,'11111222,11111222,11111222' 
TABS,ioos:station:wmo:42047:1,2003-04-09T03:39:00Z,27.8966,-93.5973,4.0,9.496172913,284.8264453,18.24,'11111222,11111222,11111222' 
TABS,ioos:station:wmo:42047:1,2003-04-09T04:39:00Z,27.8966,-93.5973,4.0,9.443611597,286.1703731,19.43,'11111222,11111222,11111222' 
TABS,ioos:station:wmo:42047:1,2003-04-09T06:39:00Z,27.8966,-93.5973,4.0,9.872167948,289.7748031,20.2,'11111222,11111222,11111222' 
TABS,ioos:station:wmo:42047:1,2003-04-09T08:09:00Z,27.8966,-93.5973,4.0,7.548807853,293.1686377,20.1,'11111222,11111222,11111222' 
TABS,ioos:station:wmo:42047:1,2003-04-09T08:39:00Z,27.8966,-93.5973,4.0,9.657846551,288.8476373,20.18,'11111222,11111222,11111222' 
TABS,ioos:station:wmo:42047:1,2003-04-09T09:39:00Z,27.8966,-93.5973,4.0,9.463345075,286.5774231,19.73,'11111222,11111222,11111222' 
TABS,ioos:station:wmo:42047:1,2003-04-09T12:09:00Z,27.8966,-93.5973,4.0,8.868782329,278.5594957,18.49,'11111222,11111222,11111222' 
TABS,ioos:station:wmo:42047:1,2003-04-09T15:09:00Z,27.8966,-93.5973,4.0,8.958258759,276.5379422,18.28,'11111222,11111222,11111222' 
TABS,ioos:station:wmo:42047:1,2003-04-09T17:39:00Z,27.8966,-93.5973,4.0,9.267243387,275.1384421,19.14,'11111222,11111222,11111222' 
TABS,ioos:station:wmo:42047:1,2003-04-09T21:09:00Z,27.8966,-93.5973,4.0,9.404323474,277.2081244,20.61,'11111222,11111222,11111222' 
TABS,ioos:station:wmo:42047:1,2003-04-09T23:09:00Z,27.8966,-93.5973,4.0,8.777066708,280.503339,19.2,'11111222,11111222,11111222' 
TABS,ioos:station:wmo:42047:1,2003-04-10T01:09:00Z,27.8966,-93.5973,4.0,7.084814747,283.467392,16.68,'11111222,11111222,11111222' 
TABS,ioos:station:wmo:42047:1,2003-04-10T03:09:00Z,27.8966,-93.5973,4.0,7.785447964,283.8220223,16.64,'11111222,11111222,11111222' 
TABS,ioos:station:wmo:42047:1,2003-04-10T03:39:00Z,27.8966,-93.5973,4.0,8.108119387,288.2561367,17.35,'11111222,11111222,11111222' 
TABS,ioos:station:wmo:42047:1,2003-04-10T04:39:00Z,27.8966,-93.5973,4.0,6.625443381,289.1185922,15.32,'11111222,11111222,11111222' 
TABS,ioos:station:wmo:42047:1,2003-04-10T08:09:00Z,27.8966,-93.5973,4.0,1.869384926,318.0354568,10.0,'11111222,11111222,11111222' 
TABS,ioos:station:wmo:42047:1,2003-04-10T08:39:00Z,27.8966,-93.5973,4.0,2.035902748,319.5817399,9.63,'11111222,11111222,11111222' 
TABS,ioos:station:wmo:42047:1,2003-04-10T09:09:00Z,27.8966,-93.5973,4.0,0.841486779,314.5184301,8.68,'11111222,11111222,11111222' 
TABS,ioos:station:wmo:42047:1,2003-04-10T10:09:00Z,27.8966,-93.5973,4.0,1.095901455,297.7341257,9.51,'11111222,11111222,11111222' 
TABS,ioos:station:wmo:42047:1,2003-04-10T10:39:00Z,27.8966,-93.5973,4.0,1.901841213,298.5863493,10.09,'11111222,11111222,11111222' 
TABS,ioos:station:wmo:42047:1,2003-04-10T13:39:00Z,27.8966,-93.5973,4.0,3.231098884,291.8013585,9.96,'11111222,11111222,11111222' 
TABS,ioos:station:wmo:42047:1,2003-04-10T14:39:00Z,27.8966,-93.5973,4.0,2.426375898,282.3751025,9.83,'11111222,11111222,11111222' 
TABS,ioos:station:wmo:42047:1,2003-04-10T16:09:00Z,27.8966,-93.5973,4.0,1.745537167,291.8623113,8.01,'11111222,11111222,11111222' 
TABS,ioos:station:wmo:42047:1,2003-04-10T19:09:00Z,27.8966,-93.5973,4.0,3.617070638,240.8839218,9.86,'11111222,11111222,11111222' 
TABS,ioos:station:wmo:42047:1,2003-04-10T19:39:00Z,27.8966,-93.5973,4.0,3.836469731,238.7545783,9.64,'11111222,11111222,11111222' 
TABS,ioos:station:wmo:42047:1,2003-04-10T20:09:00Z,27.8966,-93.5973,4.0,2.905236651,239.3745389,9.16,'11111222,11111222,11111222' 
TABS,ioos:station:wmo:42047:1,2003-04-10T23:09:00Z,27.8966,-93.5973,4.0,4.3829214,242.8503818,10.43,'11111222,11111222,11111222' 
TABS,ioos:station:wmo:42047:1,2003-04-10T23:39:00Z,27.8966,-93.5973,4.0,4.324835257,244.086743,10.26,'11111222,11111222,11111222' 
TABS,ioos:station:wmo:42047:1,2003-04-11T00:09:00Z,27.8966,-93.5973,4.0,3.846894852,236.0208504,10.33,'11111222,11111222,11111222' 
TABS,ioos:station:wmo:42047:1,2003-04-11T02:39:00Z,27.8966,-93.5973,4.0,5.017907931,235.3915859,10.25,'11111222,11111222,11111222' 
TABS,ioos:station:wmo:42047:1,2003-04-11T05:09:00Z,27.8966,-93.5973,4.0,3.412228011,240.5051132,8.43,'11111222,11111222,11111222' 
TABS,ioos:station:wmo:42047:1,2003-04-11T05:39:00Z,27.8966,-93.5973,4.0,3.124051856,233.4603135,8.02,'11111222,11111222,11111222' 
TABS,ioos:station:wmo:42047:1,2003-04-11T07:09:00Z,27.8966,-93.5973,4.0,2.805298558,230.3514243,7.49,'11111222,11111222,11111222' 
TABS,ioos:station:wmo:42047:1,2003-04-11T10:09:00Z,27.8966,-93.5973,4.0,2.060218435,240.3241776,6.96,'11111222,11111222,11111222' 
TABS,ioos:station:wmo:42047:1,2003-04-11T10:39:00Z,27.8966,-93.5973,4.0,2.720018382,232.9195438,8.06,'11111222,11111222,11111222' 
TABS,ioos:station:wmo:42047:1,2003-04-11T11:09:00Z,27.8966,-93.5973,4.0,3.116424233,230.0768236,8.3,'11111222,11111222,11111222' 
TABS,ioos:station:wmo:42047:1,2003-04-11T11:39:00Z,27.8966,-93.5973,4.0,2.248488381,229.5093562,8.35,'11111222,11111222,11111222' 
TABS,ioos:station:wmo:42047:1,2003-04-11T12:09:00Z,27.8966,-93.5973,4.0,2.189611838,230.9316183,7.49,'11111222,11111222,11111222' 
TABS,ioos:station:wmo:42047:1,2003-04-11T13:09:00Z,27.8966,-93.5973,4.0,0.615223537,262.5284583,5.86,'11111222,11111222,11111222' 
TABS,ioos:station:wmo:42047:1,2003-04-11T13:39:00Z,27.8966,-93.5973,4.0,1.47732867,282.9073785,6.7,'11111222,11111222,11111222' 
TABS,ioos:station:wmo:42047:1,2003-04-11T15:09:00Z,27.8966,-93.5973,4.0,0.060827625,260.5376999,4.96,'11111222,11111222,11111222' 
TABS,ioos:station:wmo:42047:1,2003-04-11T16:09:00Z,27.8966,-93.5973,4.0,0.420594817,71.99545958,4.83,'11111222,11111222,11111222' 
TABS,ioos:station:wmo:42047:1,2003-04-11T17:39:00Z,27.8966,-93.5973,4.0,0.621691242,64.25893092,4.13,'11111222,11111222,11111222' 
TABS,ioos:station:wmo:42047:1,2003-04-11T20:39:00Z,27.8966,-93.5973,4.0,0.381182371,85.48560118,4.79,'11111222,11111222,11111222' 
TABS,ioos:station:wmo:42047:1,2003-04-11T22:09:00Z,27.8966,-93.5973,4.0,0.91241438,189.4625105,6.17,'11111222,11111222,11111222' 
TABS,ioos:station:wmo:42047:1,2003-04-11T22:39:00Z,27.8966,-93.5973,4.0,1.570286598,178.9055224,6.38,'11111222,11111222,11111222' 
TABS,ioos:station:wmo:42047:1,2003-04-11T23:39:00Z,27.8966,-93.5973,4.0,3.390530932,178.9862341,8.09,'11111222,11111222,11111222' 
TABS,ioos:station:wmo:42047:1,2003-04-12T00:39:00Z,27.8966,-93.5973,4.0,2.653450584,193.5127095,7.16,'11111222,11111222,11111222' 
TABS,ioos:station:wmo:42047:1,2003-04-12T01:09:00Z,27.8966,-93.5973,4.0,3.046309242,193.6714856,7.63,'11111222,11111222,11111222' 
TABS,ioos:station:wmo:42047:1,2003-04-12T02:39:00Z,27.8966,-93.5973,4.0,2.458617498,201.9746671,7.14,'11111222,11111222,11111222' 